Doha, Qatar

3:03 AM +03 on May 24, 2018 (GMT +0300)
Doha International

Weather History for OTBD - January, 2013

Change the Weather History Date:

Friday, January 25, 2013

  Actual Average Record
Temperature  
Mean Temperature 71 °F -  
Max Temperature 82 °F 73 °F 82 °F (2013)
Min Temperature 60 °F 57 °F 53 °F (2005)
Cooling Degree Days 6    
Growing Degree Days 21 (Base 50)    
Moisture  
Dew Point 52 °F    
Average Humidity 57    
Maximum Humidity 82    
Minimum Humidity 21    
Precipitation  
Precipitation 0.00 in 0.02 in - ()
Sea Level Pressure  
Sea Level Pressure 30.09 in    
Wind  
Wind Speed 5 mph ()    
Max Wind Speed 10 mph    
Max Gust Speed -    
Visibility 6.5 miles    
Events      
Averages and records for this station are not official NWS values.
T = Trace of Precipitation, MM = Missing Value Source: Averaged Metar Reports

Daily Weather History Graph

Daily Weather History Graph

Search for Another Location

Airport or City:

Astronomy

Jan. 25, 2013 Rise Set
Actual Time 6:19 AM +03 5:13 PM +03
Civil Twilight 5:55 AM +03 5:37 PM +03
Nautical Twilight 5:27 AM +03 6:04 PM +03
Astronomical Twilight 5:00 AM +03 6:32 PM +03
Moon 3:49 PM +03 (1/25) 4:40 AM +03 (1/25)
Length of Visible Light 11h 42m
Length of Day
10h 53m
Waxing Gibbous, 97% of the Moon is Illuminated
Jan 25
Waxing Gibbous
Jan 27
Full
Feb 3
Last Quarter
Feb 10
New
Feb 17
First Quarter

Hourly Weather History & Observations

Time (+03) Temp. Dew Point Humidity Pressure Visibility Wind Dir Wind Speed Gust Speed Precip Events Conditions
12:00 AM 66.2 °F 53.6 °F 64% 30.06 in - South 5.8 mph - N/A   Clear
12:30 AM 66.2 °F 53.6 °F 64% 30.06 in - South 4.6 mph - N/A   Clear
1:00 AM 66.2 °F 51.8 °F 60% 30.06 in - SSW 4.6 mph - N/A   Clear
1:30 AM 64.4 °F 51.8 °F 64% 30.06 in - SW 3.5 mph - N/A   Clear
2:00 AM 64.4 °F 53.6 °F 68% 30.06 in - SSW 3.5 mph - N/A   Clear
2:30 AM 64.4 °F 55.4 °F 73% 30.06 in - SSW 3.5 mph - N/A   Clear
3:00 AM 64 °F 56 °F 67% 30.09 in 6 mi SSW 4.6 mph - -  
3:00 AM 64.4 °F 55.4 °F 73% 30.06 in - SSW 4.6 mph - N/A   Clear
3:30 AM 62.6 °F 57.2 °F 82% 30.06 in - SSW 3.5 mph - N/A   Clear
4:00 AM 62.6 °F 57.2 °F 82% 30.06 in - Variable 2.3 mph - N/A   Clear
5:00 AM 60.8 °F 53.6 °F 77% 30.06 in - SSW 3.5 mph - N/A   Clear
5:30 AM 60.8 °F 51.8 °F 72% 30.09 in - SW 4.6 mph - N/A   Clear
6:00 AM 62.6 °F 50.0 °F 63% 30.09 in - SW 3.5 mph - N/A   Clear
6:30 AM 62.6 °F 50.0 °F 63% 30.12 in - SW 4.6 mph - N/A   Clear
7:00 AM 62.6 °F 44.6 °F 52% 30.12 in - SSW 4.6 mph - N/A   Clear
8:00 AM 64.4 °F 44.6 °F 49% 30.15 in - SSW 3.5 mph - N/A   Clear
8:30 AM 68.0 °F 44.6 °F 43% 30.15 in - SSW 5.8 mph - N/A   Clear
9:00 AM 68 °F 44 °F 30% 30.18 in 6 mi South 5.8 mph - -   Clear
9:00 AM 68.0 °F 42.8 °F 40% 30.15 in - South 5.8 mph - N/A   Clear
9:30 AM 71.6 °F 41.0 °F 33% 30.15 in - South 5.8 mph - N/A   Clear
10:00 AM 73.4 °F 39.2 °F 29% 30.15 in - South 6.9 mph - N/A   Clear
10:30 AM 75.2 °F 37.4 °F 25% 30.15 in - South 8.1 mph - N/A   Clear
11:00 AM 78.8 °F 37.4 °F 23% 30.15 in - SSW 8.1 mph - N/A   Clear
12:00 PM 80.6 °F 37.4 °F 21% 30.09 in - SSW 4.6 mph - N/A   Clear
1:00 PM 77.0 °F 53.6 °F 44% 30.06 in - SE 9.2 mph - N/A   Clear
1:30 PM 77.0 °F 51.8 °F 41% 30.06 in - SE 9.2 mph - N/A   Clear
2:00 PM 75.2 °F 51.8 °F 44% 30.06 in - SE 9.2 mph - N/A   Clear
2:30 PM 75.2 °F 50.0 °F 41% 30.06 in - SE 9.2 mph - N/A   Clear
3:00 PM 74 °F 51 °F 34% 30.06 in 7 mi SE 10.4 mph - -  
3:00 PM 75.2 °F 51.8 °F 44% 30.06 in - SE 10.4 mph - N/A   Clear
4:00 PM 73.4 °F 50.0 °F 44% 30.06 in - SE 9.2 mph - N/A   Clear
4:30 PM 71.6 °F 53.6 °F 53% 30.06 in - SSE 9.2 mph - N/A   Clear
5:00 PM 69.8 °F 55.4 °F 60% 30.06 in - SSE 9.2 mph - N/A   Clear
5:30 PM 69.8 °F 57.2 °F 64% 30.06 in - SE 6.9 mph - N/A   Clear
6:00 PM 68.0 °F 59.0 °F 73% 30.09 in - SSE 8.1 mph - N/A   Clear
6:30 PM 68.0 °F 57.2 °F 68% 30.09 in - SE 8.1 mph - N/A   Clear
7:00 PM 68.0 °F 57.2 °F 68% 30.09 in - SSE 9.2 mph - N/A   Clear
7:30 PM 68.0 °F 59.0 °F 73% 30.09 in - SSE 6.9 mph - N/A   Clear
8:00 PM 68.0 °F 57.2 °F 68% 30.09 in - SE 6.9 mph - N/A   Clear
8:30 PM 68.0 °F 57.2 °F 68% 30.09 in - SSE 5.8 mph - N/A   Clear
9:00 PM 68 °F 57 °F 59% 30.10 in 7 mi SSE 5.8 mph - -  
9:00 PM 68.0 °F 57.2 °F 68% 30.09 in - SSE 5.8 mph - N/A   Clear
9:30 PM 68.0 °F 57.2 °F 68% 30.09 in - SSE 8.1 mph - N/A   Clear
10:00 PM 69.8 °F 57.2 °F 64% 30.09 in - SSE 5.8 mph - N/A   Clear
10:30 PM 68.0 °F 57.2 °F 68% 30.09 in - South 4.6 mph - N/A   Clear
11:00 PM 68.0 °F 57.2 °F 68% 30.09 in - South 3.5 mph - N/A   Clear